Location: Bieujac
(44.5398°N, 0.1549°W)
Time: 13:02:31
(UTC+00:00)

Okean O Rocket - Pass Details

Date: 17 November 2019
Orbit: 622 x 646 km, 98.2° (Epoch: 06 December)

Event Time Altitude Azimuth Distance (km) Brightness Sun altitude
Rises 05:40:24 0° 13° (NNE) 2,914 5.0 -14.0°
Reaches altitude 10° 05:42:36 10° 13° (NNE) 2,002 4.2 -13.6°
Maximum altitude 05:46:58 89° 283° (WNW) 629 1.5 -12.9°
Drops below altitude 10° 05:51:18 10° 195° (SSW) 1,989 4.2 -12.1°
Sets 05:53:28 0° 196° (SSW) 2,892 5.0 -11.8°
